EA3E-2 Weather Reports


Display with metric or nautical units.
time (UTC)temp
F
wind
direction
speed
MPH
gust
MPH
rain 1hr
in
rain 24hr
in
rain mn
in
humidity
%
barometer
mb
20260902125200 90 126 4.0 11.0 0.00 0.00 0.00 46 1019.4
20260902124300 90 120 5.0 9.0 0.00 0.00 0.00 46 1019.4
20260902122500 89 145 4.0 9.0 0.00 0.00 0.00 47 1019.6
20260902121600 89 134 6.0 10.0 0.00 0.00 0.00 47 1019.7
20260902120700 89 137 5.0 10.0 0.00 0.00 0.00 48 1019.7
20260902114900 89 135 4.0 11.0 0.00 0.00 0.00 48 1019.8
20260902114000 89 131 3.0 10.0 0.00 0.00 0.00 48 1019.9
20260902113100 88 147 4.0 11.0 0.00 0.00 0.00 49 1019.8
20260902112200 88 146 4.0 10.0 0.00 0.00 0.00 50 1019.8
20260902111300 89 128 5.0 12.0 0.00 0.00 0.00 49 1019.9
20260902110400 89 124 3.0 13.0 0.00 0.00 0.00 50 1019.9
20260902105500 88 128 3.0 10.0 0.00 0.00 0.00 50 1019.9
20260902102800 87 111 3.0 10.0 0.00 0.00 0.00 49 1020.1
20260902101900 87 83 4.0 9.0 0.00 0.00 0.00 49 1020.1
20260902100100 87 122 3.0 10.0 0.00 0.00 0.00 49 1020.2
20260902093400 86 105 3.0 9.0 0.00 0.00 0.00 51 1020.4
20260902092500 86 102 3.0 8.0 0.00 0.00 0.00 51 1020.3
20260902091600 85 103 2.0 9.0 0.00 0.00 0.00 51 1020.3
20260902090700 85 88 2.0 7.0 0.00 0.00 0.00 52 1020.3
20260902085800 85 85 1.0 7.0 0.00 0.00 0.00 54 1020.2
20260902084900 84 82 1.0 4.0 0.00 0.00 0.00 54 1020.1
20260902084000 83 94 1.0 5.0 0.00 0.00 0.00 56 1020.1
20260902083100 83 101 1.0 4.0 0.00 0.00 0.00 57 1020.1
20260902082200 83 170 0.0 3.0 0.00 0.00 0.00 56 1020.0
20260902081300 83 0 0.0 0.0 0.00 0.00 0.00 57 1019.9
20260902080400 82 0 0.0 0.0 0.00 0.00 0.00 58 1020.0
20260902074600 79 228 1.0 2.0 0.00 0.00 0.00 63 1019.9
20260902071000 74 0 1.0 0.0 0.00 0.00 0.00 72 1019.7
20260902065159 72 0 0.0 0.0 0.00 0.00 0.00 74 1019.7
20260902060700 67 228 2.0 5.0 0.00 0.00 0.00 79 1019.5
20260902055759 67 228 0.0 4.0 0.00 0.00 0.00 80 1019.4
20260902054859 67 0 0.0 0.0 0.00 0.00 0.00 81 1019.3
20260902053959 67 228 1.0 2.0 0.00 0.00 0.00 81 1019.3
20260902053100 67 228 2.0 3.0 0.00 0.00 0.00 81 1019.1
20260902052159 67 228 0.0 4.0 0.00 0.00 0.00 81 1019.1
20260902051300 67 0 0.0 0.0 0.00 0.00 0.00 82 1019.1
20260902045500 66 0 0.0 0.0 0.00 0.00 0.00 82 1018.9
20260902044559 67 0 1.0 0.0 0.00 0.00 0.00 81 1018.9
20260902041900 67 225 3.0 6.0 0.00 0.00 0.00 82 1018.9
20260902041000 67 236 2.0 6.0 0.00 0.00 0.00 82 1018.9
20260902040059 67 255 2.0 5.0 0.00 0.00 0.00 82 1018.9
20260902034259 67 301 0.0 4.0 0.00 0.00 0.00 82 1018.9
20260902033359 67 0 0.0 0.0 0.00 0.00 0.00 82 1018.9
20260902032500 67 0 1.0 0.0 0.00 0.00 0.00 82 1018.9
20260902031600 67 32 3.0 4.0 0.00 0.00 0.00 82 1019.0
20260902030659 67 62 2.0 4.0 0.00 0.00 0.00 81 1019.0
20260902025759 67 67 1.0 4.0 0.00 0.00 0.00 82 1019.1
20260902024859 67 74 0.0 3.0 0.00 0.00 0.00 83 1019.0
20260902023959 67 0 0.0 0.0 0.00 0.00 0.00 83 1019.1
20260902023059 68 0 0.0 0.0 0.00 0.00 0.00 84 1019.0
20260902022159 68 0 0.0 0.0 0.00 0.00 0.00 83 1019.1
20260902020359 69 0 0.0 0.0 0.00 0.00 0.00 83 1019.1
20260902014559 69 0 0.0 0.0 0.00 0.00 0.00 82 1019.1
20260902013659 69 0 0.0 0.0 0.00 0.00 0.00 82 1019.1
20260902012759 69 0 0.0 0.0 0.00 0.00 0.00 82 1019.1
20260902011859 69 0 0.0 0.0 0.00 0.00 0.00 81 1019.1
20260902010059 69 0 0.0 0.0 0.00 0.00 0.00 81 1019.1
20260902005200 69 0 0.0 0.0 0.00 0.00 0.00 81 1019.2
20260902004259 69 0 0.0 0.0 0.00 0.00 0.00 81 1019.2
20260902002459 69 0 0.0 0.0 0.00 0.00 0.00 83 1019.2
20260902001559 69 0 0.0 0.0 0.00 0.00 0.00 82 1019.2
20260902000659 69 0 0.0 0.0 0.00 0.00 0.00 82 1019.2
20260901235759 70 0 0.0 0.0 0.00 0.00 0.00 82 1019.1
20260901233959 70 75 1.0 3.0 0.00 0.00 0.00 82 1019.1
20260901233059 71 75 1.0 2.0 0.00 0.00 0.00 82 1019.0
20260901232159 71 74 0.0 2.0 0.00 0.00 0.00 82 1019.0
20260901231259 71 74 1.0 3.0 0.00 0.00 0.00 81 1019.0
20260901230359 72 71 0.0 4.0 0.00 0.00 0.00 81 1019.0
20260901225459 72 0 0.0 0.0 0.00 0.00 0.00 80 1019.0
20260901224559 72 0 0.0 0.0 0.00 0.00 0.00 80 1018.8
20260901223659 72 0 0.0 0.0 0.00 0.00 0.00 80 1018.7
20260901222759 72 0 0.0 0.0 0.00 0.00 0.00 80 1018.7
20260901221859 72 0 0.0 0.0 0.00 0.00 0.00 80 1018.8
20260901220959 73 0 0.0 0.0 0.00 0.00 0.00 79 1018.6
20260901220059 73 0 0.0 0.0 0.00 0.00 0.00 79 1018.5
20260901215159 73 0 0.0 0.0 0.00 0.00 0.00 78 1018.5
20260901214259 73 0 0.0 0.0 0.00 0.00 0.00 77 1018.3
20260901213359 74 0 0.0 0.0 0.00 0.00 0.00 77 1018.2
20260901212459 74 0 1.0 0.0 0.00 0.00 0.00 76 1018.1
20260901211559 74 80 1.0 4.0 0.00 0.00 0.00 76 1018.0
20260901203059 76 0 0.0 0.0 0.00 0.00 0.00 76 1018.2
20260901202159 76 0 0.0 0.0 0.00 0.00 0.00 76 1018.2
20260901201259 76 0 0.0 0.0 0.00 0.00 0.00 77 1018.3
20260901200359 76 0 0.0 0.0 0.00 0.00 0.00 77 1018.1
20260901195459 76 0 0.0 0.0 0.00 0.00 0.00 76 1018.0
20260901193659 77 85 0.0 3.0 0.00 0.00 0.00 74 1017.6
20260901192759 77 0 0.0 0.0 0.00 0.00 0.00 74 1017.6
20260901191859 77 0 0.0 0.0 0.00 0.00 0.00 74 1017.6
20260901190959 78 84 1.0 3.0 0.00 0.00 0.00 73 1017.5
20260901185159 78 0 0.0 0.0 0.00 0.00 0.00 73 1017.2
20260901184259 78 98 1.0 4.0 0.00 0.00 0.00 72 1017.3
20260901183359 79 108 0.0 4.0 0.00 0.00 0.00 71 1017.3
20260901180659 80 117 3.0 6.0 0.00 0.00 0.00 70 1017.4
20260901175759 80 114 4.0 7.0 0.00 0.00 0.00 70 1017.3
20260901174859 80 112 5.0 8.0 0.00 0.00 0.00 70 1017.3
20260901173959 80 112 5.0 10.0 0.00 0.00 0.00 70 1017.5
20260901172159 80 119 5.0 10.0 0.00 0.00 0.00 69 1017.8
20260901170359 80 111 5.0 10.0 0.00 0.00 0.00 68 1017.6
20260901165459 80 110 6.0 9.0 0.00 0.00 0.00 68 1017.5
20260901164559 80 122 5.0 10.0 0.00 0.00 0.00 67 1017.6
20260901163659 81 126 5.0 10.0 0.00 0.00 0.00 66 1017.7
20260901162759 81 137 6.0 12.0 0.00 0.00 0.00 66 1017.8
20260901161859 81 131 7.0 13.0 0.00 0.00 0.00 66 1017.8
20260901160959 80 122 6.0 11.0 0.00 0.00 0.00 65 1017.7
20260901160059 81 130 6.0 12.0 0.00 0.00 0.00 65 1017.7
20260901155159 80 122 7.0 11.0 0.00 0.00 0.00 65 1017.7
20260901154259 81 115 7.0 12.0 0.00 0.00 0.00 64 1017.6
20260901153359 81 122 6.0 12.0 0.00 0.00 0.00 63 1017.7
20260901152459 81 114 7.0 12.0 0.00 0.00 0.00 63 1017.8
20260901150659 80 120 10.0 15.0 0.00 0.00 0.00 62 1017.9
20260901145759 80 121 9.0 15.0 0.00 0.00 0.00 61 1017.8
20260901144859 80 122 8.0 16.0 0.00 0.00 0.00 61 1018.0
20260901143959 80 122 10.0 16.0 0.00 0.00 0.00 61 1017.8
20260901143059 80 124 9.0 16.0 0.00 0.00 0.00 60 1018.1
20260901142159 81 122 9.0 16.0 0.00 0.00 0.00 59 1018.1
20260901141259 81 126 9.0 14.0 0.00 0.00 0.00 58 1018.4
20260901140359 81 121 10.0 16.0 0.00 0.00 0.00 57 1018.1
20260901135459 81 130 9.0 17.0 0.00 0.00 0.00 56 1018.2
20260901134559 82 131 8.0 17.0 0.00 0.00 0.00 55 1018.6
20260901133659 82 133 9.0 15.0 0.00 0.00 0.00 56 1018.5
20260901132800 83 128 10.0 20.0 0.00 0.00 0.00 54 1018.6
20260901131859 83 128 11.0 20.0 0.00 0.00 0.00 53 1018.6